QPF
0.00 0.00 0.00 0.00 0.00 0.00 0.00 0.00 0.00 0.00 0.00 0.00 0.00 0.00 0.00 0.00 0.00 0.00 0.00 0.00 0.00 0.00 0.00 0.00 0.00 0.01 0.01 0.01 0.00 0.00 0.00 0.00 0.00 0.00 0.00 0.00 0.00 0.00 0.00 0.00 0.00 0.00 0.00 0.00
0.00 0.00 0.00 0.00 0.00 0.00 0.00 0.00 0.00 0.00 0.00 0.00 0.00 0.00 0.00 0.00 0.00 0.00 0.00 0.00 0.00 0.00 0.00 0.00 0.00 0.00 0.01 0.02 0.02 0.00 0.00 0.00 0.00 0.00 0.00 0.00 0.00 0.00 0.00 0.00 0.00 0.00 0.00 0.00
0.00 0.00 0.00 0.00 0.00 0.00 0.00 0.00 0.00 0.00 0.00 0.00 0.00 0.00 0.00 0.00 0.00 0.00 0.00 0.00 0.00 0.00 0.00 0.00 0.00 0.01 0.02 0.01 0.00 0.00 0.00 0.00 0.00 0.00 0.00 0.00 0.00 0.00 0.00 0.00 0.00 0.00 0.00 0.00
0.00 0.00 0.00 0.00 0.00 0.00 0.00 0.00 0.00 0.00 0.00 0.00 0.00 0.00 0.00 0.00 0.00 0.00 0.00 0.00 0.00 0.00 0.00 0.02 0.09 0.04 0.01 0.00 0.00 0.00 0.00 0.00 0.00 0.00 0.00 0.00 0.00 0.00 0.00 0.00 0.00 0.00 0.00 0.00
0.00 0.00 0.00 0.00 0.00 0.00 0.00 0.00 0.00 0.00 0.00 0.00 0.00 0.00 0.00 0.00 0.00 0.00 0.00 0.00 0.00 0.00 0.03 0.10 0.06 0.02 0.01 0.00 0.00 0.00 0.00 0.00 0.00 0.00 0.00 0.00 0.00 0.00 0.00 0.00 0.00 0.00 0.00 0.00
0.00 0.00 0.00 0.00 0.00 0.00 0.00 0.00 0.00 0.00 0.00 0.00 0.00 0.00 0.00 0.00 0.00 0.00 0.00 0.00 0.00 0.01 0.04 0.02 0.00 0.00 0.00 0.00 0.00 0.00 0.00 0.00 0.00 0.00 0.00 0.00 0.00 0.00 0.00 0.00 0.00 0.00 0.00 0.00
0.00 0.00 0.00 0.00 0.00 0.00 0.00 0.00 0.00 0.00 0.00 0.00 0.00 0.00 0.00 0.00 0.00 0.00 0.00 0.00 0.00 0.01 0.01 0.02 0.00 0.00 0.00 0.00 0.00 0.00 0.00 0.00 0.00 0.00 0.00 0.00 0.00 0.00 0.00 0.00 0.00 0.00 0.00 0.00
0.00 0.00 0.00 0.00 0.00 0.00 0.00 0.00 0.00 0.00 0.00 0.00 0.00 0.00 0.00 0.00 0.00 0.00 0.00 0.00 0.02 0.02 0.02 0.04 0.01 0.01 0.00 0.00 0.00 0.00 0.01 0.01 0.00 0.00 0.00 0.00 0.00 0.00 0.00 0.00 0.00 0.00 0.00 0.00
0.00 0.00 0.00 0.00 0.00 0.00 0.00 0.00 0.00 0.00 0.00 0.00 0.00 0.00 0.00 0.00 0.00 0.00 0.00 0.01 0.05 0.05 0.05 0.02 0.03 0.03 0.02 0.00 0.00 0.00 0.01 0.00 0.00 0.00 0.00 0.00 0.00 0.00 0.00 0.00 0.00 0.00 0.00 0.00
0.00 0.00 0.00 0.00 0.00 0.00 0.00 0.00 0.00 0.00 0.00 0.00 0.00 0.00 0.00 0.00 0.00 0.00 0.01 0.03 0.04 0.04 0.02 0.01 0.01 0.01 0.00 0.00 0.00 0.00 0.00 0.00 0.00 0.00 0.00 0.00 0.00 0.00 0.00 0.00 0.00 0.00 0.00 0.00
0.00 0.00 0.00 0.00 0.01 0.00 0.00 0.00 0.00 0.00 0.00 0.00 0.00 0.00 0.00 0.00 0.00 0.01 0.03 0.04 0.02 0.01 0.00 0.00 0.00 0.00 0.00 0.02 0.02 0.00 0.00 0.00 0.00 0.00 0.00 0.00 0.00 0.00 0.00 0.00 0.00 0.00 0.00 0.00
0.00 0.00 0.00 0.00 0.00 0.00 0.00 0.02 0.01 0.00 0.00 0.00 0.00 0.00 0.00 0.00 0.00 0.00 0.00 0.00 0.00 0.00 0.00 0.00 0.00 0.00 0.01 0.01 0.00 0.00 0.00 0.00 0.00 0.00 0.00 0.00 0.00 0.00 0.00 0.00 0.00 0.00 0.00 0.00
0.00 0.00 0.00 0.00 0.00 0.00 0.00 0.00 0.00 0.00 0.00 0.00 0.00 0.00 0.00 0.00 0.00 0.00 0.00 0.00 0.00 0.00 0.00 0.00 0.00 0.00 0.00 0.00 0.00 0.00 0.00 0.00 0.00 0.00 0.00 0.00 0.00 0.00 0.00 0.00 0.00 0.00 0.00 0.00
0.00 0.01 0.01 0.00 0.00 0.00 0.00 0.00 0.00 0.00 0.02 0.00 0.00 0.00 0.00 0.00 0.00 0.00 0.00 0.00 0.00 0.00 0.00 0.00 0.00 0.00 0.00 0.00 0.00 0.00 0.00 0.00 0.00 0.00 0.00 0.00 0.00 0.00 0.00 0.00 0.00 0.00 0.00 0.00
0.00 0.01 0.02 0.01 0.00 0.00 0.00 0.00 0.01 0.00 0.01 0.02 0.02 0.02 0.00 0.00 0.00 0.00 0.00 0.01 0.00 0.00 0.00 0.00 0.00 0.00 0.00 0.00 0.00 0.00 0.00 0.00 0.00 0.00 0.00 0.00 0.00 0.00 0.00 0.00 0.00 0.00 0.00 0.00
0.00 0.01 0.02 0.00 0.01 0.00 0.01 0.00 0.00 0.00 0.02 0.07 0.11 0.05 0.01 0.00 0.00 0.00 0.00 0.00 0.00 0.00 0.00 0.00 0.00 0.00 0.00 0.00 0.00 0.00 0.00 0.00 0.00 0.00 0.00 0.00 0.00 0.00 0.00 0.00 0.00 0.00 0.00 0.00
0.00 0.01 0.00 0.00 0.00 0.00 0.00 0.00 0.00 0.03 0.04 0.04 0.04 0.02 0.01 0.00 0.00 0.00 0.00 0.00 0.00 0.00 0.00 0.00 0.00 0.00 0.00 0.00 0.00 0.00 0.00 0.00 0.00 0.00 0.00 0.00 0.00 0.00 0.00 0.00 0.00 0.00 0.00 0.00
0.00 0.00 0.00 0.00 0.00 0.00 0.00 0.01 0.02 0.03 0.03 0.04 0.04 0.01 0.00 0.00 0.00 0.00 0.00 0.00 0.00 0.00 0.00 0.00 0.00 0.00 0.00 0.00 0.01 0.01 0.01 0.00 0.00 0.01 0.01 0.01 0.02 0.01 0.01 0.00 0.00 0.00 0.00 0.00
0.00 0.00 0.00 0.00 0.00 0.01 0.01 0.00 0.02 0.05 0.06 0.05 0.05 0.02 0.00 0.00 0.00 0.00 0.00 0.00 0.00 0.00 0.00 0.00 0.00 0.00 0.00 0.00 0.00 0.00 0.00 0.00 0.01 0.00 0.01 0.02 0.02 0.01 0.00 0.00 0.00 0.00 0.00 0.00
0.00 0.00 0.00 0.01 0.01 0.03 0.03 0.02 0.01 0.02 0.02 0.02 0.01 0.00 0.00 0.00 0.00 0.00 0.00 0.00 0.00 0.00 0.00 0.00 0.00 0.00 0.00 0.00 0.00 0.00 0.00 0.00 0.00 0.00 0.00 0.00 0.00 0.00 0.00 0.00 0.00 0.00 0.00 0.00
0.00 0.00 0.01 0.06 0.07 0.03 0.02 0.02 0.00 0.00 0.00 0.00 0.00 0.00 0.00 0.00 0.00 0.00 0.00 0.00 0.00 0.00 0.00 0.00 0.00 0.00 0.00 0.00 0.00 0.00 0.00 0.00 0.00 0.00 0.00 0.00 0.00 0.00 0.00 0.00 0.00 0.00 0.00 0.01
0.00 0.00 0.00 0.00 0.00 0.00 0.00 0.00 0.00 0.00 0.00 0.00 0.00 0.00 0.00 0.00 0.00 0.00 0.00 0.00 0.00 0.00 0.00 0.00 0.00 0.00 0.00 0.00 0.00 0.00 0.00 0.00 0.00 0.00 0.00 0.00 0.00 0.00 0.00 0.00 0.00 0.00 0.00 0.01
0.00 0.00 0.00 0.00 0.00 0.00 0.00 0.00 0.00 0.00 0.00 0.00 0.00 0.00 0.00 0.00 0.00 0.00 0.00 0.00 0.00 0.00 0.00 0.00 0.00 0.00 0.00 0.00 0.00 0.00 0.00 0.00 0.00 0.00 0.00 0.00 0.00 0.00 0.00 0.00 0.00 0.00 0.00 0.00
0.00 0.00 0.00 0.00 0.00 0.00 0.00 0.00 0.00 0.00 0.00 0.00 0.00 0.00 0.00 0.00 0.00 0.00 0.00 0.00 0.00 0.00 0.00 0.00 0.00 0.00 0.00 0.00 0.00 0.00 0.00 0.00 0.00 0.00 0.00 0.00 0.00 0.00 0.00 0.00 0.00 0.00 0.00 0.00
0.00 0.00 0.00 0.00 0.00 0.00 0.00 0.00 0.00 0.00 0.00 0.00 0.00 0.00 0.00 0.00 0.00 0.00 0.00 0.00 0.00 0.00 0.00 0.00 0.00 0.00 0.00 0.00 0.00 0.00 0.00 0.00 0.00 0.00 0.00 0.00 0.00 0.00 0.00 0.00 0.00 0.00 0.00 0.00
0.00 0.00 0.00 0.00 0.00 0.00 0.00 0.00 0.00 0.00 0.00 0.00 0.00 0.00 0.00 0.00 0.00 0.00 0.00 0.00 0.00 0.00 0.00 0.00 0.00 0.00 0.00 0.00 0.00 0.00 0.00 0.00 0.00 0.00 0.00 0.00 0.00 0.00 0.00 0.00 0.00 0.00 0.00 0.00
0.00 0.00 0.00 0.00 0.00 0.00 0.00 0.00 0.00 0.00 0.00 0.00 0.00 0.00 0.00 0.00 0.00 0.00 0.00 0.00 0.00 0.00 0.00 0.00 0.00 0.00 0.00 0.00 0.00 0.00 0.00 0.00 0.00 0.00 0.00 0.00 0.00 0.00 0.00 0.00 0.00 0.00 0.00 0.00
MSLP
1003.41 1003.39 1003.13 1003.09 1003.52 1003.99 1004.10 1003.62 1002.95 1002.33 1002.47 1002.07 1002.28 1002.91 1003.39 1004.26 1005.29 1006.12 1006.75 1007.36 1007.97 1008.39 1009.30 1010.38 1011.05 1011.73 1012.47 1013.08 1013.75 1014.53 1014.99 1015.30 1015.69 1016.14 1016.78 1017.35 1017.40 1017.69 1017.79 1017.94 1017.91 1017.16 1016.59 1016.82
1003.63 1003.47 1003.21 1003.11 1003.28 1003.44 1003.70 1003.68 1003.18 1002.69 1002.30 1002.21 1002.79 1003.30 1003.51 1004.08 1005.16 1005.65 1006.14 1006.73 1007.49 1008.48 1009.25 1010.37 1011.39 1012.34 1013.22 1013.88 1014.45 1014.57 1015.26 1015.46 1015.87 1016.73 1017.21 1017.44 1017.65 1018.00 1017.89 1018.11 1017.98 1017.75 1017.57 1017.39
1003.94 1003.87 1003.42 1003.36 1002.86 1003.13 1003.27 1003.21 1002.89 1002.36 1002.03 1002.62 1002.57 1003.19 1003.44 1003.86 1004.61 1005.29 1005.58 1006.31 1007.36 1008.36 1009.36 1010.17 1011.06 1012.03 1012.80 1013.64 1014.46 1015.08 1015.41 1015.71 1016.26 1016.95 1017.42 1017.62 1017.64 1017.70 1017.68 1018.19 1017.97 1017.77 1017.80 1017.47
1004.50 1004.35 1003.80 1003.16 1003.34 1003.44 1003.39 1003.05 1003.05 1002.88 1002.66 1003.01 1003.18 1003.24 1003.44 1003.66 1003.89 1004.49 1005.35 1006.33 1007.40 1008.39 1009.30 1010.63 1011.49 1012.53 1013.29 1013.81 1014.36 1014.95 1015.41 1015.97 1016.48 1016.97 1017.34 1017.59 1017.50 1017.41 1017.84 1018.01 1017.69 1017.26 1017.31 1017.47
1005.11 1004.37 1004.25 1003.78 1003.69 1003.65 1003.46 1002.65 1002.60 1002.78 1002.90 1002.96 1003.54 1003.77 1003.53 1003.62 1003.85 1004.50 1005.29 1006.07 1006.95 1008.03 1009.32 1010.43 1011.33 1012.23 1013.49 1014.14 1014.50 1015.10 1015.42 1015.69 1016.09 1016.51 1016.84 1017.27 1017.41 1017.77 1018.13 1017.92 1017.67 1017.34 1017.29 1017.34
1005.83 1004.62 1003.73 1003.18 1003.78 1004.20 1004.43 1003.13 1002.58 1003.09 1003.32 1003.20 1003.60 1003.33 1002.87 1003.38 1003.98 1004.61 1005.46 1006.33 1007.22 1008.15 1008.94 1009.99 1011.15 1011.47 1012.50 1013.91 1014.20 1014.85 1015.25 1015.37 1015.65 1016.09 1016.53 1016.96 1017.25 1017.64 1017.49 1017.45 1017.13 1016.93 1017.14 1017.35
1005.63 1005.03 1004.15 1003.91 1004.47 1005.06 1005.15 1004.58 1003.86 1003.83 1003.56 1003.71 1003.76 1003.93 1003.76 1003.78 1004.17 1004.80 1005.29 1006.29 1007.27 1008.10 1008.85 1010.27 1011.32 1011.73 1012.22 1013.57 1014.13 1014.47 1015.22 1015.56 1015.73 1016.21 1016.61 1017.03 1017.46 1017.68 1017.40 1017.26 1017.21 1016.97 1017.06 1017.09
1006.37 1005.73 1005.31 1005.20 1005.45 1005.56 1006.01 1005.32 1005.11 1004.71 1004.57 1004.29 1004.21 1004.14 1004.20 1004.53 1005.03 1005.46 1006.01 1007.21 1008.13 1008.91 1009.75 1010.83 1011.58 1012.08 1012.55 1013.31 1014.00 1014.69 1015.19 1015.36 1015.72 1016.16 1016.56 1016.85 1017.13 1017.12 1017.06 1017.07 1016.95 1016.72 1016.81 1016.71
1006.44 1005.59 1005.77 1005.91 1005.99 1006.05 1006.13 1005.90 1005.73 1005.30 1005.27 1004.90 1004.88 1004.93 1005.07 1005.38 1005.83 1006.56 1007.08 1007.91 1008.63 1009.37 1010.19 1011.22 1011.78 1012.18 1012.80 1013.55 1014.12 1014.56 1014.92 1015.29 1015.47 1015.78 1016.14 1016.43 1016.59 1016.56 1016.53 1016.51 1016.55 1016.51 1016.33 1016.28
1006.97 1006.12 1005.86 1005.75 1005.90 1006.13 1006.15 1006.03 1005.91 1005.44 1005.53 1005.48 1005.50 1005.86 1005.81 1006.12 1006.55 1007.41 1008.02 1008.53 1009.15 1009.79 1010.60 1011.45 1011.91 1012.15 1012.59 1013.25 1013.92 1014.28 1014.75 1015.25 1015.59 1015.78 1015.86 1016.10 1016.05 1015.87 1015.87 1015.83 1016.06 1016.32 1016.03 1015.95
1006.83 1006.11 1005.59 1005.80 1006.08 1006.11 1006.16 1005.97 1005.75 1005.74 1005.78 1005.76 1005.87 1006.12 1006.28 1006.64 1007.30 1008.02 1008.57 1009.14 1009.46 1009.90 1010.89 1011.53 1011.97 1012.39 1012.81 1013.25 1013.95 1014.37 1014.60 1014.88 1015.43 1015.52 1015.54 1015.54 1015.62 1015.50 1015.57 1015.63 1015.83 1015.83 1015.69 1015.68
1006.42 1006.61 1006.65 1006.27 1006.25 1006.15 1006.07 1005.72 1005.69 1005.93 1006.44 1006.85 1006.77 1006.37 1006.79 1007.28 1007.92 1008.39 1008.92 1009.53 1010.08 1010.67 1011.04 1012.18 1012.36 1012.75 1013.07 1013.57 1013.87 1014.10 1014.21 1014.56 1014.82 1015.01 1014.98 1014.91 1015.03 1015.23 1015.52 1015.43 1015.70 1015.82 1015.88 1015.96
1006.96 1006.85 1006.76 1006.54 1006.31 1006.07 1005.86 1005.84 1006.03 1006.66 1005.70 1007.99 1007.22 1007.07 1007.19 1007.57 1008.25 1008.97 1009.78 1010.07 1010.57 1011.18 1011.59 1012.12 1012.45 1012.71 1013.06 1013.36 1013.63 1013.80 1014.04 1014.22 1014.39 1014.64 1014.58 1014.77 1014.86 1015.04 1014.65 1014.83 1015.14 1015.12 1015.21 1015.49
1007.44 1007.17 1006.75 1006.48 1006.44 1006.34 1006.10 1005.91 1006.31 1006.67 1006.36 1008.11 1008.50 1007.66 1007.85 1008.51 1008.33 1008.64 1009.46 1009.77 1010.99 1011.24 1011.70 1012.00 1012.35 1012.75 1013.17 1013.41 1013.68 1013.89 1014.04 1014.19 1014.27 1014.25 1014.48 1014.57 1014.64 1014.42 1014.37 1014.50 1014.34 1014.25 1014.52 1014.92
1007.48 1007.45 1006.98 1006.92 1006.82 1007.04 1006.76 1006.66 1006.86 1007.18 1007.57 1008.94 1008.29 1007.98 1008.31 1009.32 1008.44 1009.19 1010.02 1010.81 1011.19 1011.73 1012.15 1012.52 1012.69 1013.01 1013.30 1013.55 1013.82 1013.80 1013.85 1013.80 1013.87 1013.91 1014.09 1014.28 1014.24 1014.08 1014.01 1013.98 1013.97 1013.85 1013.80 1014.21
1008.24 1007.02 1006.91 1007.24 1007.12 1006.83 1006.76 1006.81 1007.02 1007.62 1008.28 1008.76 1008.89 1008.88 1008.50 1010.01 1009.95 1010.40 1011.17 1011.70 1011.69 1012.16 1012.78 1013.28 1013.35 1013.23 1013.31 1013.33 1013.32 1013.32 1013.40 1013.92 1014.27 1014.09 1013.95 1013.88 1013.61 1013.53 1013.39 1013.46 1013.25 1013.11 1013.05 1012.92
1007.41 1007.13 1007.54 1007.70 1007.46 1007.35 1007.41 1007.57 1007.81 1008.51 1008.85 1009.37 1009.82 1010.17 1010.25 1010.89 1011.02 1011.59 1012.08 1012.56 1013.12 1013.39 1013.72 1013.74 1013.91 1013.61 1013.53 1013.58 1013.69 1013.82 1013.86 1013.85 1013.99 1014.02 1013.53 1013.43 1013.17 1013.20 1013.07 1012.87 1012.53 1012.29 1012.03 1012.06
1008.31 1008.25 1008.17 1008.07 1008.03 1008.02 1008.30 1008.74 1009.18 1009.80 1010.57 1010.96 1011.08 1011.32 1011.37 1011.65 1012.34 1012.88 1013.27 1013.77 1013.94 1014.41 1014.74 1014.68 1014.90 1014.49 1014.26 1014.04 1013.83 1013.71 1013.87 1013.71 1013.64 1013.54 1013.25 1013.00 1013.10 1012.97 1012.63 1012.06 1011.87 1011.68 1011.35 1011.17
1009.07 1009.11 1009.20 1009.15 1009.37 1009.56 1009.76 1009.74 1010.27 1010.95 1011.53 1012.00 1012.10 1012.55 1012.94 1013.37 1013.96 1014.28 1014.65 1014.89 1015.07 1015.26 1015.70 1015.70 1015.60 1015.01 1014.74 1014.84 1014.39 1013.84 1013.47 1013.43 1013.30 1013.22 1013.12 1013.14 1013.08 1012.57 1012.16 1011.94 1011.80 1011.67 1011.27 1010.95
1009.90 1010.07 1010.42 1010.55 1010.90 1011.16 1011.42 1011.43 1011.57 1011.93 1012.33 1012.87 1013.64 1013.93 1014.36 1015.03 1015.42 1015.66 1015.90 1015.95 1016.51 1016.82 1016.74 1016.51 1015.95 1015.61 1015.49 1015.31 1015.14 1014.74 1014.53 1014.22 1014.02 1013.93 1013.87 1013.59 1013.33 1013.01 1012.76 1012.55 1012.38 1012.03 1011.63 1011.32
1011.12 1011.28 1011.55 1012.03 1012.59 1012.92 1012.87 1013.08 1013.33 1013.74 1014.47 1014.21 1014.73 1015.44 1015.98 1016.28 1016.33 1016.35 1016.28 1016.56 1017.52 1017.70 1017.37 1017.00 1016.58 1016.28 1016.26 1015.74 1015.25 1015.07 1014.83 1014.66 1014.60 1014.56 1014.49 1014.51 1014.41 1014.30 1014.10 1013.76 1013.58 1013.49 1013.34 1013.01
1012.03 1012.37 1013.01 1013.02 1013.69 1014.29 1014.49 1014.74 1015.13 1015.33 1015.25 1015.72 1016.17 1016.41 1016.59 1016.83 1017.06 1017.45 1017.94 1017.97 1017.87 1018.19 1017.58 1017.25 1017.26 1017.33 1016.83 1016.40 1016.04 1015.75 1015.62 1015.36 1015.15 1015.06 1015.01 1015.05 1015.05 1015.03 1014.93 1014.71 1014.57 1014.27 1014.05 1013.94
1013.29 1013.78 1014.14 1014.57 1015.01 1015.46 1015.77 1016.01 1016.29 1016.47 1016.73 1017.07 1017.29 1017.47 1017.54 1017.85 1017.99 1017.85 1018.12 1018.78 1018.54 1018.72 1018.07 1018.11 1018.25 1017.90 1017.41 1016.90 1016.79 1016.55 1016.29 1016.11 1015.94 1016.03 1016.24 1016.28 1016.18 1016.03 1015.76 1015.48 1015.25 1015.02 1014.81 1014.52
1014.21 1014.76 1015.20 1015.52 1015.79 1016.04 1016.48 1017.24 1017.41 1017.69 1017.87 1017.96 1017.98 1018.22 1018.22 1018.25 1018.74 1018.96 1019.20 1019.35 1019.20 1018.88 1018.80 1018.83 1018.60 1018.34 1017.82 1017.31 1017.05 1016.85 1016.68 1016.51 1016.43 1016.26 1016.14 1016.37 1016.11 1015.97 1015.69 1015.33 1014.97 1014.72 1014.49 1014.28
1014.96 1015.40 1015.77 1015.97 1016.15 1016.72 1017.21 1017.68 1017.92 1018.19 1018.43 1018.71 1018.93 1019.01 1019.01 1019.05 1018.84 1019.26 1019.17 1019.14 1019.33 1018.98 1018.88 1019.11 1018.91 1018.51 1017.97 1017.66 1017.40 1017.12 1016.96 1016.86 1016.87 1016.58 1016.23 1015.99 1015.78 1015.51 1015.24 1014.90 1014.55 1014.31 1014.02 1013.60
1015.44 1015.83 1016.21 1016.45 1016.75 1017.07 1017.39 1017.64 1017.87 1018.26 1018.38 1018.60 1019.00 1019.10 1019.16 1019.27 1019.33 1019.17 1019.30 1019.46 1019.28 1019.27 1018.97 1018.72 1018.56 1018.30 1017.96 1017.66 1017.40 1017.10 1016.91 1016.73 1016.58 1016.26 1016.27 1015.77 1015.44 1015.12 1014.73 1014.43 1014.08 1013.75 1013.34 1012.94
1016.22 1016.45 1016.75 1017.07 1017.33 1017.54 1017.80 1018.08 1018.25 1018.62 1018.85 1018.95 1019.13 1019.32 1019.36 1019.39 1019.47 1019.34 1019.47 1019.07 1018.94 1018.82 1018.61 1018.39 1018.20 1018.04 1017.86 1017.54 1017.14 1016.83 1016.55 1016.28 1016.11 1015.86 1015.55 1015.16 1014.81 1014.43 1014.02 1013.65 1013.29 1012.88 1012.47 1012.08
Thickness
5799 5793 5800 5802 5794 5786 5785 5799 5793 5807 5800 5825 5836 5834 5835 5833 5828 5820 5815 5812 5810 5809 5802 5794 5787 5782 5777 5773 5766 5757 5753 5750 5745 5739 5732 5726 5725 5721 5719 5716 5714 5721 5726 5724
5786 5790 5796 5791 5797 5797 5793 5793 5795 5801 5804 5831 5829 5827 5829 5829 5824 5820 5817 5816 5813 5807 5800 5789 5780 5771 5764 5758 5753 5753 5746 5744 5740 5730 5725 5722 5718 5713 5714 5708 5707 5709 5710 5711
5773 5778 5784 5772 5795 5797 5797 5801 5803 5794 5822 5820 5825 5823 5825 5828 5825 5820 5820 5818 5811 5803 5795 5789 5782 5773 5763 5753 5746 5740 5739 5737 5730 5722 5717 5714 5714 5712 5709 5701 5702 5704 5702 5704
5766 5767 5746 5790 5801 5799 5793 5801 5805 5805 5814 5814 5816 5823 5826 5831 5829 5823 5821 5815 5807 5799 5793 5781 5774 5762 5754 5743 5736 5734 5732 5727 5722 5717 5712 5708 5708 5707 5700 5696 5697 5700 5698 5696
5753 5757 5762 5775 5786 5788 5785 5800 5810 5802 5805 5811 5811 5814 5817 5827 5831 5824 5820 5815 5808 5802 5789 5781 5770 5763 5746 5736 5732 5726 5724 5723 5720 5716 5710 5704 5701 5695 5689 5690 5690 5692 5691 5688
5735 5743 5742 5785 5787 5791 5788 5781 5808 5800 5796 5803 5806 5805 5822 5825 5824 5819 5814 5809 5800 5795 5789 5779 5766 5762 5750 5733 5730 5721 5719 5720 5719 5714 5708 5701 5696 5689 5689 5688 5688 5688 5683 5680
5741 5742 5760 5779 5781 5779 5762 5777 5793 5794 5797 5798 5797 5805 5813 5820 5816 5814 5810 5802 5796 5789 5782 5769 5760 5755 5747 5732 5726 5725 5716 5713 5710 5705 5700 5693 5685 5681 5681 5680 5678 5677 5673 5672
5722 5723 5729 5765 5764 5760 5763 5776 5777 5783 5786 5790 5796 5802 5805 5806 5802 5801 5797 5787 5780 5770 5761 5755 5751 5744 5737 5727 5723 5716 5710 5707 5703 5697 5690 5685 5679 5677 5675 5672 5670 5670 5666 5665
5732 5742 5745 5752 5753 5762 5763 5763 5767 5773 5778 5782 5784 5788 5791 5790 5788 5783 5781 5774 5769 5762 5753 5743 5738 5734 5725 5720 5714 5708 5702 5697 5694 5690 5684 5679 5674 5673 5670 5667 5664 5661 5661 5660
5720 5734 5739 5746 5751 5751 5756 5759 5764 5772 5772 5775 5774 5773 5777 5778 5775 5770 5766 5761 5757 5750 5741 5730 5727 5725 5721 5714 5708 5702 5694 5687 5683 5679 5677 5672 5671 5670 5666 5663 5659 5653 5655 5653
5716 5730 5742 5742 5743 5747 5748 5755 5760 5763 5764 5766 5766 5765 5766 5764 5759 5755 5751 5746 5743 5739 5728 5721 5718 5714 5711 5706 5696 5690 5687 5683 5675 5673 5669 5666 5663 5662 5658 5657 5653 5651 5650 5648
5719 5723 5722 5730 5738 5743 5744 5750 5753 5751 5745 5745 5749 5754 5753 5750 5746 5742 5737 5731 5725 5720 5715 5704 5704 5703 5699 5693 5688 5684 5681 5676 5672 5667 5665 5663 5659 5653 5647 5647 5642 5640 5637 5637
5719 5723 5724 5730 5736 5740 5741 5743 5744 5735 5742 5710 5737 5741 5742 5738 5733 5726 5720 5717 5713 5709 5705 5700 5698 5695 5691 5688 5683 5678 5673 5670 5666 5659 5658 5653 5650 5645 5647 5644 5636 5634 5633 5630
5713 5718 5720 5726 5723 5730 5733 5736 5733 5732 5734 5716 5719 5728 5729 5722 5727 5724 5714 5713 5705 5704 5699 5696 5692 5686 5682 5678 5673 5668 5664 5656 5657 5656 5650 5646 5643 5643 5641 5635 5634 5636 5629 5624
5711 5712 5717 5719 5720 5717 5722 5724 5721 5718 5716 5705 5717 5719 5720 5713 5721 5714 5708 5702 5699 5693 5689 5684 5680 5675 5672 5668 5663 5661 5658 5656 5653 5650 5645 5639 5637 5635 5633 5631 5628 5627 5626 5621
5699 5715 5717 5711 5713 5717 5719 5720 5719 5714 5710 5708 5708 5708 5711 5699 5701 5699 5693 5689 5689 5683 5677 5670 5666 5666 5663 5661 5658 5656 5653 5645 5638 5639 5636 5633 5634 5632 5630 5625 5623 5621 5620 5620
5706 5711 5707 5703 5707 5712 5713 5712 5711 5705 5704 5701 5697 5695 5694 5689 5688 5682 5678 5676 5671 5667 5661 5658 5653 5655 5654 5650 5646 5641 5639 5635 5630 5627 5631 5628 5629 5624 5621 5621 5621 5620 5620 5617
5697 5698 5699 5701 5701 5702 5700 5697 5696 5692 5683 5681 5683 5681 5680 5677 5669 5666 5663 5658 5654 5647 5642 5640 5634 5635 5636 5636 5635 5633 5627 5626 5624 5622 5621 5622 5618 5616 5615 5618 5617 5615 5615 5615
5687 5686 5686 5688 5687 5685 5684 5685 5681 5676 5671 5667 5667 5662 5661 5658 5651 5649 5644 5640 5636 5632 5625 5622 5620 5623 5622 5617 5618 5621 5622 5620 5619 5617 5615 5610 5607 5609 5610 5609 5607 5605 5606 5606
5674 5674 5672 5671 5670 5668 5665 5665 5665 5663 5659 5654 5648 5645 5642 5637 5633 5629 5625 5621 5614 5609 5606 5605 5607 5608 5604 5602 5601 5602 5601 5600 5599 5597 5595 5594 5594 5593 5593 5591 5589 5590 5592 5591
5658 5658 5655 5650 5643 5642 5645 5644 5642 5639 5634 5636 5633 5628 5623 5620 5618 5615 5615 5611 5596 5592 5592 5593 5594 5592 5588 5589 5590 5588 5587 5586 5584 5581 5578 5574 5571 5568 5566 5566 5563 5560 5559 5560
5648 5643 5636 5635 5631 5626 5626 5626 5624 5623 5624 5621 5618 5615 5612 5608 5603 5597 5589 5588 5586 5579 5582 5582 5577 5572 5573 5572 5571 5570 5568 5567 5566 5564 5562 5558 5553 5549 5545 5543 5539 5539 5538 5537
5630 5625 5620 5618 5616 5613 5612 5610 5609 5608 5606 5604 5601 5598 5596 5591 5588 5589 5585 5571 5570 5563 5566 5562 5556 5555 5555 5556 5553 5551 5549 5547 5545 5540 5534 5529 5526 5524 5522 5521 5519 5518 5516 5515
5620 5616 5612 5610 5609 5608 5602 5595 5595 5592 5589 5588 5587 5583 5582 5579 5570 5565 5558 5553 5551 5550 5547 5542 5540 5538 5538 5539 5537 5534 5532 5529 5526 5523 5519 5513 5511 5509 5507 5506 5505 5504 5502 5500
5612 5609 5605 5603 5602 5597 5591 5587 5585 5582 5578 5573 5569 5566 5563 5559 5559 5551 5549 5545 5539 5538 5536 5528 5526 5525 5525 5522 5520 5518 5515 5511 5506 5504 5503 5500 5497 5495 5493 5492 5491 5489 5487 5488
5605 5601 5598 5596 5593 5590 5587 5585 5581 5576 5573 5569 5561 5556 5553 5548 5544 5543 5537 5531 5529 5524 5522 5519 5516 5513 5511 5508 5506 5504 5501 5497 5494 5492 5487 5486 5484 5482 5481 5479 5477 5476 5475 5474
5592 5589 5588 5585 5583 5580 5577 5573 5570 5564 5560 5558 5552 5546 5542 5538 5533 5530 5523 5523 5519 5514 5511 5508 5505 5501 5498 5496 5494 5492 5489 5487 5482 5480 5477 5476 5474 5472 5471 5469 5468 5466 5465 5464